VE4UB Weather Reports


Display with metric or nautical units.
time (UTC)temp
F
wind
direction
speed
MPH
gust
MPH
rain 1hr
in
rain 24hr
in
rain mn
in
humidity
%
barometer
mb
20180722065054 64 152 6.0 8.0 0.00 0.00 0.00 84 1021.5
20180722064554 64 158 8.0 8.0 0.00 0.00 0.00 84 1021.5
20180722064054 65 183 5.0 8.0 0.00 0.00 0.00 84 1021.5
20180722063554 65 111 5.0 9.0 0.00 0.00 0.00 84 1021.5
20180722063054 65 176 6.0 9.0 0.00 0.00 0.00 83 1021.4
20180722062554 65 141 6.0 9.0 0.00 0.00 0.00 83 1021.4
20180722062054 65 134 7.0 9.0 0.00 0.00 0.00 82 1021.5
20180722061554 65 139 7.0 10.0 0.00 0.00 0.00 82 1021.5
20180722061054 65 215 6.0 10.0 0.00 0.00 0.00 82 1021.5
20180722060554 65 124 7.0 8.0 0.00 0.00 0.00 82 1021.4
20180722060054 65 124 3.0 8.0 0.00 0.00 0.00 81 1021.5
20180722055554 65 146 3.0 5.0 0.00 0.00 0.00 80 1021.5
20180722055054 65 188 3.0 7.0 0.00 0.00 0.00 80 1021.6
20180722054524 66 120 2.0 7.0 0.00 0.00 0.00 79 1021.6
20180722054054 66 143 3.0 5.0 0.00 0.00 0.00 79 1021.6
20180722053554 66 155 0.0 5.0 0.00 0.00 0.00 78 1021.6
20180722053024 66 135 0.0 5.0 0.00 0.00 0.00 78 1021.6
20180722052554 66 191 0.0 7.0 0.00 0.00 0.00 78 1021.6
20180722052054 66 167 5.0 7.0 0.00 0.00 0.00 77 1021.6
20180722051554 66 193 4.0 6.0 0.00 0.00 0.00 77 1021.6
20180722051024 67 170 0.0 7.0 0.00 0.00 0.00 76 1021.4
20180722050554 67 117 6.0 7.0 0.00 0.00 0.00 76 1021.5
20180722050054 67 190 0.0 6.0 0.00 0.00 0.00 75 1021.7
20180722045554 67 190 0.0 6.0 0.00 0.00 0.00 75 1021.9
20180722045055 67 127 3.0 6.0 0.00 0.00 0.00 75 1021.9
20180722044555 67 160 0.0 6.0 0.00 0.00 0.00 74 1021.9
20180722044054 68 160 0.0 7.0 0.00 0.00 0.00 74 1021.9
20180722043525 68 127 7.0 7.0 0.00 0.00 0.00 73 1021.8
20180722043055 68 128 3.0 6.0 0.00 0.00 0.00 73 1021.8
20180722042554 68 148 3.0 7.0 0.00 0.00 0.00 72 1021.8
20180722042054 68 197 5.0 7.0 0.00 0.00 0.00 72 1021.9
20180722041525 68 173 3.0 6.0 0.00 0.00 0.00 72 1021.8
20180722041054 68 113 4.0 6.0 0.00 0.00 0.00 72 1021.7
20180722040554 68 124 3.0 6.0 0.00 0.00 0.00 71 1021.8
20180722040054 69 159 4.0 6.0 0.00 0.00 0.00 71 1021.8
20180722035525 69 225 0.0 7.0 0.00 0.00 0.00 70 1022.0
20180722035054 69 141 4.0 7.0 0.00 0.00 0.00 70 1022.1
20180722034554 69 127 3.0 5.0 0.00 0.00 0.00 70 1022.0
20180722034054 69 136 3.0 7.0 0.00 0.00 0.00 69 1021.9
20180722033554 69 190 5.0 7.0 0.00 0.00 0.00 69 1021.9
20180722033024 70 181 4.0 6.0 0.00 0.00 0.00 69 1021.9
20180722032525 70 136 4.0 5.0 0.00 0.00 0.00 68 1021.9
20180722032054 70 128 0.0 6.0 0.00 0.00 0.00 67 1021.9
20180722031554 71 128 0.0 6.0 0.00 0.00 0.00 66 1021.8
20180722031054 71 111 0.0 5.0 0.00 0.00 0.00 65 1021.9
20180722030554 71 125 0.0 5.0 0.00 0.00 0.00 64 1022.0
20180722030054 72 131 0.0 5.0 0.00 0.00 0.00 63 1022.1
20180722025554 72 134 0.0 5.0 0.00 0.00 0.00 62 1022.0
20180722025054 72 139 2.0 6.0 0.00 0.00 0.00 61 1022.1
20180722024554 72 80 3.0 6.0 0.00 0.00 0.00 60 1022.1
20180722024054 73 167 5.0 6.0 0.00 0.00 0.00 59 1022.1
20180722023554 73 142 3.0 6.0 0.00 0.00 0.00 58 1022.3
20180722023054 73 127 3.0 6.0 0.00 0.00 0.00 56 1022.3
20180722022554 73 197 2.0 6.0 0.00 0.00 0.00 55 1022.3
20180722022054 74 163 3.0 6.0 0.00 0.00 0.00 54 1022.3
20180722021524 74 162 0.0 5.0 0.00 0.00 0.00 53 1022.4
20180722021024 74 159 0.0 5.0 0.00 0.00 0.00 52 1022.3
20180722020554 74 193 0.0 5.0 0.00 0.00 0.00 52 1022.2
20180722020024 74 179 4.0 5.0 0.00 0.00 0.00 51 1022.1
20180722015554 75 166 0.0 5.0 0.00 0.00 0.00 51 1022.1
20180722015054 75 166 0.0 6.0 0.00 0.00 0.00 51 1021.9
20180722014554 75 128 0.0 6.0 0.00 0.00 0.00 51 1021.9
20180722014054 76 193 3.0 6.0 0.00 0.00 0.00 50 1021.7
20180722013554 76 162 6.0 10.0 0.00 0.00 0.00 49 1021.7
20180722013054 76 235 3.0 10.0 0.00 0.00 0.00 48 1021.6
20180722012554 76 136 5.0 11.0 0.00 0.00 0.00 47 1021.6
20180722012054 76 108 3.0 11.0 0.00 0.00 0.00 47 1021.7
20180722011554 77 139 3.0 8.0 0.00 0.00 0.00 47 1021.6
20180722011054 77 183 5.0 8.0 0.00 0.00 0.00 47 1021.7
20180722010554 77 165 4.0 9.0 0.00 0.00 0.00 46 1021.5
20180722010054 77 118 5.0 9.0 0.00 0.00 0.00 45 1021.3
20180722005554 77 162 6.0 11.0 0.00 0.00 0.00 45 1020.8
20180722005054 78 107 6.0 11.0 0.00 0.00 0.00 44 1020.8
20180722004554 78 121 6.0 10.0 0.00 0.00 0.00 44 1021.0
20180722004054 78 135 8.0 10.0 0.00 0.00 0.00 43 1021.0
20180722003600 78 158 5.0 9.0 0.00 0.00 0.00 42 1021.2
20180722003024 78 158 4.0 9.0 0.00 0.00 0.00 41 1021.2
20180722002554 79 193 4.0 9.0 0.00 0.00 0.00 41 1020.8
20180722002054 79 127 8.0 10.0 0.00 0.00 0.00 40 1020.9
20180722001525 79 114 3.0 10.0 0.00 0.00 0.00 39 1020.7
20180722001054 80 118 3.0 14.0 0.00 0.00 0.00 39 1020.6
20180722000556 80 145 0.0 14.0 0.00 0.00 0.00 39 1020.5
20180722000025 80 72 7.0 10.0 0.00 0.00 0.00 38 1020.5
20180721235555 80 84 9.0 9.0 0.00 0.00 0.00 38 1020.6
20180721235025 79 188 6.0 9.0 0.00 0.00 0.00 39 1020.7
20180721234554 79 145 4.0 9.0 0.00 0.00 0.00 38 1020.9
20180721234054 80 141 7.0 12.0 0.00 0.00 0.00 37 1020.7
20180721233554 80 149 6.0 12.0 0.00 0.00 0.00 37 1020.8
20180721233054 80 172 6.0 8.0 0.00 0.00 0.00 38 1020.9
20180721232554 80 180 5.0 8.0 0.00 0.00 0.00 37 1021.0
20180721232054 80 153 5.0 8.0 0.00 0.00 0.00 37 1021.4
20180721231554 80 176 5.0 8.0 0.00 0.00 0.00 37 1021.4
20180721231024 79 149 4.0 5.0 0.00 0.00 0.00 38 1021.5
20180721230554 79 155 0.0 8.0 0.00 0.00 0.00 39 1021.5
20180721230054 79 155 0.0 8.0 0.00 0.00 0.00 39 1021.5
20180721225554 79 117 3.0 7.0 0.00 0.00 0.00 39 1021.3
20180721225054 79 145 6.0 11.0 0.00 0.00 0.00 38 1021.3
20180721224554 80 173 3.0 11.0 0.00 0.00 0.00 37 1021.4
20180721224024 80 169 7.0 10.0 0.00 0.00 0.00 37 1021.4
20180721223554 79 180 6.0 9.0 0.00 0.00 0.00 37 1021.3
20180721223054 79 77 0.0 9.0 0.00 0.00 0.00 38 1021.3
20180721222524 79 103 5.0 10.0 0.00 0.00 0.00 37 1021.3
20180721222054 80 76 0.0 12.0 0.00 0.00 0.00 37 1021.2
20180721221554 80 107 9.0 12.0 0.00 0.00 0.00 36 1021.2
20180721221054 80 138 3.0 9.0 0.00 0.00 0.00 37 1021.0
20180721220554 80 135 6.0 9.0 0.00 0.00 0.00 36 1021.2
20180721220054 80 72 4.0 11.0 0.00 0.00 0.00 36 1020.9
20180721215554 80 135 9.0 11.0 0.00 0.00 0.00 37 1021.0
20180721215054 79 141 3.0 10.0 0.00 0.00 0.00 39 1021.0
20180721214554 79 122 7.0 10.0 0.00 0.00 0.00 39 1021.3
20180721214054 79 114 6.0 10.0 0.00 0.00 0.00 40 1021.3
20180721213554 79 34 3.0 11.0 0.00 0.00 0.00 42 1021.4
20180721213054 79 76 5.0 11.0 0.00 0.00 0.00 39 1021.3
20180721212554 79 90 7.0 10.0 0.00 0.00 0.00 39 1021.4
20180721212054 79 41 4.0 10.0 0.00 0.00 0.00 38 1021.5
20180721211554 79 34 0.0 7.0 0.00 0.00 0.00 40 1021.6
20180721211054 79 114 3.0 7.0 0.00 0.00 0.00 38 1021.6
20180721210524 80 90 6.0 10.0 0.00 0.00 0.00 38 1021.7
20180721210054 80 44 3.0 10.0 0.00 0.00 0.00 38 1021.7
20180721205554 80 45 5.0 10.0 0.00 0.00 0.00 38 1021.6
20180721205054 79 98 0.0 7.0 0.00 0.00 0.00 39 1021.6
20180721204554 79 84 5.0 9.0 0.00 0.00 0.00 40 1021.6
20180721204024 79 53 5.0 10.0 0.00 0.00 0.00 39 1021.7
20180721203554 79 158 6.0 12.0 0.00 0.00 0.00 39 1021.8
20180721203054 79 100 5.0 12.0 0.00 0.00 0.00 40 1021.9
20180721202554 79 82 6.0 9.0 0.00 0.00 0.00 39 1021.8
20180721202024 79 23 3.0 7.0 0.00 0.00 0.00 39 1021.8
20180721201554 78 97 0.0 10.0 0.00 0.00 0.00 41 1021.9
20180721201054 79 155 9.0 11.0 0.00 0.00 0.00 40 1021.9
20180721200554 79 129 5.0 11.0 0.00 0.00 0.00 39 1022.0
20180721200054 79 94 0.0 9.0 0.00 0.00 0.00 39 1021.9
20180721195554 78 117 7.0 9.0 0.00 0.00 0.00 39 1022.0
20180721195054 78 111 0.0 7.0 0.00 0.00 0.00 40 1022.0
20180721194554 78 153 7.0 7.0 0.00 0.00 0.00 40 1022.0
20180721194054 77 79 0.0 7.0 0.00 0.00 0.00 40 1022.0
20180721193554 78 51 0.0 9.0 0.00 0.00 0.00 40 1022.0
20180721193054 78 94 8.0 9.0 0.00 0.00 0.00 39 1022.0
20180721192554 78 121 0.0 7.0 0.00 0.00 0.00 41 1021.9
20180721192054 78 86 4.0 9.0 0.00 0.00 0.00 39 1022.1
20180721191554 79 120 7.0 9.0 0.00 0.00 0.00 39 1022.1
20180721191054 79 132 3.0 11.0 0.00 0.00 0.00 36 1022.2
20180721190554 79 118 11.0 11.0 0.00 0.00 0.00 38 1022.2
20180721190054 78 127 6.0 8.0 0.00 0.00 0.00 38 1022.2
20180721185554 78 75 3.0 11.0 0.00 0.00 0.00 37 1022.2
20180721185054 77 146 4.0 11.0 0.00 0.00 0.00 38 1022.3
20180721184554 77 117 6.0 9.0 0.00 0.00 0.00 41 1022.4
20180721184054 77 201 3.0 9.0 0.00 0.00 0.00 41 1022.3
20180721183554 77 6 5.0 10.0 0.00 0.00 0.00 41 1022.3
20180721183054 78 176 5.0 10.0 0.00 0.00 0.00 40 1022.3
20180721182524 78 176 6.0 10.0 0.00 0.00 0.00 41 1022.4
20180721182054 78 122 8.0 8.0 0.00 0.00 0.00 40 1022.3
20180721181554 77 62 5.0 8.0 0.00 0.00 0.00 41 1022.3
20180721181054 77 65 0.0 10.0 0.00 0.00 0.00 40 1022.3
20180721180554 77 86 8.0 10.0 0.00 0.00 0.00 39 1022.3
20180721180054 77 117 3.0 7.0 0.00 0.00 0.00 41 1022.4
20180721175524 76 135 3.0 9.0 0.00 0.00 0.00 40 1022.4
20180721175054 76 8 0.0 13.0 0.00 0.00 0.00 40 1022.5
20180721174554 76 141 8.0 13.0 0.00 0.00 0.00 42 1022.4
20180721174054 76 44 6.0 10.0 0.00 0.00 0.00 41 1022.5
20180721173554 77 90 5.0 10.0 0.00 0.00 0.00 40 1022.5
20180721173054 77 98 3.0 6.0 0.00 0.00 0.00 43 1022.4
20180721172554 76 76 6.0 10.0 0.00 0.00 0.00 42 1022.4
20180721172054 77 90 6.0 10.0 0.00 0.00 0.00 41 1022.4
20180721171554 77 66 5.0 8.0 0.00 0.00 0.00 41 1022.5
20180721171054 76 84 8.0 8.0 0.00 0.00 0.00 42 1022.6
20180721170554 76 80 3.0 11.0 0.00 0.00 0.00 41 1022.6
20180721170024 76 83 3.0 11.0 0.00 0.00 0.00 42 1022.6
20180721165524 76 101 5.0 8.0 0.00 0.00 0.00 40 1022.6
20180721165054 76 83 5.0 10.0 0.00 0.00 0.00 43 1022.7
20180721164554 76 135 9.0 10.0 0.00 0.00 0.00 41 1022.7
20180721164054 76 113 0.0 7.0 0.00 0.00 0.00 44 1022.7
20180721163554 76 136 0.0 9.0 0.00 0.00 0.00 45 1022.8
20180721163053 76 34 0.0 9.0 0.00 0.00 0.00 44 1022.8
20180721162554 75 91 0.0 6.0 0.00 0.00 0.00 47 1022.8
20180721162054 75 13 3.0 8.0 0.00 0.00 0.00 48 1022.8
20180721161524 75 42 2.0 10.0 0.00 0.00 0.00 48 1022.8
20180721161024 74 100 3.0 10.0 0.00 0.00 0.00 49 1022.9
20180721160554 74 65 0.0 8.0 0.00 0.00 0.00 51 1022.9
20180721160053 74 82 6.0 8.0 0.00 0.00 0.00 51 1022.9
20180721155554 74 62 6.0 8.0 0.00 0.00 0.00 51 1022.9
20180721155053 74 138 3.0 8.0 0.00 0.00 0.00 51 1022.9
20180721154554 74 55 4.0 7.0 0.00 0.00 0.00 52 1022.9
20180721154053 74 76 3.0 7.0 0.00 0.00 0.00 53 1022.8
20180721153525 73 184 3.0 6.0 0.00 0.00 0.00 54 1022.9
20180721153054 73 66 0.0 9.0 0.00 0.00 0.00 55 1023.0
20180721152553 72 146 4.0 9.0 0.00 0.00 0.00 55 1023.0
20180721152054 72 253 3.0 9.0 0.00 0.00 0.00 57 1023.1
20180721151553 72 94 7.0 9.0 0.00 0.00 0.00 58 1023.0
20180721151054 72 82 3.0 8.0 0.00 0.00 0.00 59 1023.1
20180721150553 72 132 7.0 8.0 0.00 0.00 0.00 63 1023.1
20180721150054 71 174 0.0 8.0 0.00 0.00 0.00 64 1023.0
20180721145524 71 31 0.0 11.0 0.00 0.00 0.00 64 1023.1
20180721145053 70 101 5.0 11.0 0.00 0.00 0.00 65 1023.1
20180721144553 70 128 8.0 9.0 0.00 0.00 0.00 65 1023.0
20180721144024 70 73 7.0 8.0 0.00 0.00 0.00 67 1023.0
20180721143553 70 122 3.0 8.0 0.00 0.00 0.00 68 1023.0
20180721143053 69 142 6.0 10.0 0.00 0.00 0.00 69 1023.0
20180721142553 69 163 6.0 10.0 0.00 0.00 0.00 70 1022.9
20180721142053 69 132 6.0 9.0 0.00 0.00 0.00 69 1023.0
20180721141553 69 113 5.0 8.0 0.00 0.00 0.00 70 1023.0
20180721141053 69 84 3.0 8.0 0.00 0.00 0.00 71 1023.0
20180721140553 68 135 7.0 10.0 0.00 0.00 0.00 73 1023.0
20180721140053 68 131 0.0 10.0 0.00 0.00 0.00 74 1023.0
20180721135523 67 176 5.0 8.0 0.00 0.00 0.00 75 1023.0
20180721135023 67 82 4.0 8.0 0.00 0.00 0.00 77 1023.0
20180721134553 66 134 8.0 8.0 0.00 0.00 0.00 79 1022.9
20180721134054 66 55 6.0 8.0 0.00 0.00 0.00 79 1023.0
20180721133553 65 122 5.0 8.0 0.00 0.00 0.00 80 1023.1
20180721133054 65 128 6.0 8.0 0.00 0.00 0.00 81 1023.0
20180721132553 64 83 0.0 5.0 0.00 0.00 0.00 83 1023.0
20180721132053 64 83 0.0 7.0 0.00 0.00 0.00 83 1023.0
20180721131553 64 136 4.0 8.0 0.00 0.00 0.00 83 1023.1
20180721131053 64 90 3.0 8.0 0.00 0.00 0.00 83 1023.0
20180721130553 64 128 0.0 8.0 0.00 0.00 0.00 83 1023.1
20180721130053 64 128 0.0 8.0 0.00 0.00 0.00 82 1023.1
20180721125553 64 191 0.0 0.0 0.00 0.00 0.00 83 1023.1
20180721125053 63 191 0.0 7.0 0.00 0.00 0.00 84 1023.0
20180721124523 63 191 0.0 8.0 0.00 0.00 0.00 85 1023.0
20180721124053 63 128 5.0 8.0 0.00 0.00 0.00 86 1023.0
20180721123553 62 141 5.0 7.0 0.00 0.00 0.00 86 1022.9
20180721123054 62 132 4.0 7.0 0.00 0.00 0.00 87 1022.9
20180721122553 62 142 6.0 7.0 0.00 0.00 0.00 88 1022.8
20180721122023 63 76 0.0 5.0 0.00 0.00 0.00 90 1022.7
20180721121553 62 60 0.0 5.0 0.00 0.00 0.00 91 1022.7
20180721121053 62 42 5.0 5.0 0.00 0.00 0.00 92 1022.7
20180721120553 62 90 0.0 0.0 0.00 0.00 0.00 93 1022.7
20180721120053 61 90 0.0 0.0 0.00 0.00 0.00 94 1022.6
20180721115523 61 90 0.0 0.0 0.00 0.00 0.00 94 1022.5
20180721115023 60 90 0.0 0.0 0.00 0.00 0.00 94 1022.6
20180721114523 60 90 0.0 0.0 0.00 0.00 0.00 94 1022.5
20180721114053 59 90 0.0 0.0 0.00 0.00 0.00 94 1022.4
20180721113523 59 90 0.0 0.0 0.00 0.00 0.00 94 1022.4
20180721113053 59 90 0.0 0.0 0.00 0.00 0.00 94 1022.4
20180721112523 58 90 0.0 0.0 0.00 0.00 0.00 94 1022.3
20180721112053 58 90 0.0 0.0 0.00 0.00 0.00 94 1022.3
20180721111523 58 90 0.0 0.0 0.00 0.00 0.00 94 1022.4
20180721111053 58 90 0.0 0.0 0.00 0.00 0.00 94 1022.3
20180721110523 58 90 0.0 0.0 0.00 0.00 0.00 94 1022.2
20180721110053 58 90 0.0 0.0 0.00 0.00 0.00 93 1022.2
20180721105553 58 90 0.0 0.0 0.00 0.00 0.00 93 1022.2
20180721105053 58 90 0.0 0.0 0.00 0.00 0.00 93 1022.2
20180721104553 58 90 0.0 0.0 0.00 0.00 0.00 93 1022.2
20180721104053 58 90 0.0 0.0 0.00 0.00 0.00 93 1022.2
20180721103553 58 90 0.0 0.0 0.00 0.00 0.00 92 1022.1
20180721103023 58 90 0.0 0.0 0.00 0.00 0.00 92 1022.1
20180721102523 58 90 0.0 0.0 0.00 0.00 0.00 92 1022.0
20180721102053 58 90 0.0 0.0 0.00 0.00 0.00 92 1022.0
20180721101553 58 90 0.0 0.0 0.00 0.00 0.00 91 1021.9
20180721101053 59 90 0.0 0.0 0.00 0.00 0.00 90 1021.8
20180721100553 59 90 0.0 0.0 0.00 0.00 0.00 90 1021.7
20180721100053 59 90 0.0 0.0 0.00 0.00 0.00 89 1021.8
20180721095553 59 90 0.0 0.0 0.00 0.00 0.00 89 1021.7
20180721095023 60 90 0.0 0.0 0.00 0.00 0.00 88 1021.6
20180721094553 60 90 0.0 0.0 0.00 0.00 0.00 88 1021.5
20180721094053 60 90 0.0 0.0 0.00 0.00 0.00 87 1021.5
20180721093523 61 90 0.0 0.0 0.00 0.00 0.00 86 1021.4
20180721093053 61 90 0.0 0.0 0.00 0.00 0.00 86 1021.4
20180721092553 61 90 0.0 0.0 0.00 0.00 0.00 85 1021.4
20180721092053 62 90 0.0 0.0 0.00 0.00 0.00 84 1021.4
20180721091553 62 90 0.0 0.0 0.00 0.00 0.00 83 1021.5
20180721091053 63 90 0.0 0.0 0.00 0.00 0.00 82 1021.4
20180721090553 63 90 0.0 0.0 0.00 0.00 0.00 82 1021.3
20180721090023 63 90 0.0 0.0 0.00 0.00 0.00 82 1021.2
20180721085553 63 90 0.0 0.0 0.00 0.00 0.00 82 1021.2
20180721085023 63 90 0.0 0.0 0.00 0.00 0.00 81 1020.9
20180721084553 64 90 0.0 0.0 0.00 0.00 0.00 81 1020.9
20180721084053 64 90 0.0 0.0 0.00 0.00 0.00 81 1020.9
20180721083553 64 90 0.0 5.0 0.00 0.00 0.00 81 1020.9
20180721083053 64 90 0.0 5.0 0.00 0.00 0.00 81 1020.8
20180721082553 64 316 0.0 0.0 0.00 0.00 0.00 82 1020.8
20180721082054 64 316 0.0 0.0 0.00 0.00 0.00 82 1020.9
20180721081538 64 316 0.0 0.0 0.00 0.00 0.00 83 1020.9
20180721081038 64 316 0.0 0.0 0.00 0.00 0.00 83 1020.9
20180721080523 64 316 0.0 0.0 0.00 0.00 0.00 84 1020.8
20180721080053 64 316 0.0 0.0 0.00 0.00 0.00 84 1020.7
20180721075553 63 316 0.0 0.0 0.00 0.00 0.00 85 1020.7
20180721075023 63 316 0.0 0.0 0.00 0.00 0.00 85 1020.6
20180721074553 63 316 0.0 0.0 0.00 0.00 0.00 86 1020.6
20180721074053 63 316 0.0 0.0 0.00 0.00 0.00 87 1020.6
20180721073553 63 316 0.0 0.0 0.00 0.00 0.00 87 1020.5
20180721073053 63 316 0.0 0.0 0.00 0.00 0.00 88 1020.5
20180721072553 62 316 0.0 0.0 0.00 0.00 0.00 88 1020.5
20180721072053 62 316 0.0 0.0 0.00 0.00 0.00 88 1020.5
20180721071553 62 316 0.0 0.0 0.00 0.00 0.00 88 1020.5
20180721071053 62 316 0.0 0.0 0.00 0.00 0.00 88 1020.6
20180721070553 62 316 0.0 0.0 0.00 0.00 0.00 88 1020.6
20180721070053 62 316 0.0 0.0 0.00 0.00 0.00 88 1020.6
20180721065523 62 316 0.0 0.0 0.00 0.00 0.00 87 1020.5